{"data":{"norad_id":66686,"epoch":"2026-09-20T03:18:11.307168Z","epoch_age_seconds":45679,"freshness":"FRESH","line1":"1 66686U 25276W   26263.13763087  .00003535  00000+0  16615-3 0  9995","line2":"2 66686  97.4162 335.0975 0005793  40.5982 319.5684 15.20223798 44831","mean_motion":15.20223798,"eccentricity":0.0005793,"inclination_deg":97.4162,"raan_deg":335.0975,"arg_perigee_deg":40.5982,"mean_anomaly_deg":319.5684,"bstar":0.00016615,"rev_number":4483,"period_min":94.722895529886,"perigee_km":501.17748908649,"apogee_km":509.15248276739,"semimajor_km":6883.3019859269,"source":"CELESTRAK","updated_at":"2026-09-20T09:00:34.879187Z"}}